Theta_e
346 340 338 340 337 336 335 334 336 340 344 345 342 337 333 334 333 334 335 336 336 336 335 330 325 328 329 328 328 328 327 327 327 328 329 332 336 336 337 339 339 340 340 336 333 334 336 335 335 336 337 337 337 336 335 335 335 334 335 336 335 335 334 331 332 334 334 334 334 333 334 336 336 335 335 334 331 330 331 332 332 333 333 330 330
344 339 342 343 337 335 334 335 336 340 345 344 343 338 333 333 334 334 335 337 337 336 336 333 329 329 329 329 329 329 329 328 328 327 328 330 336 339 340 341 341 341 341 337 335 336 337 337 336 335 336 337 336 335 334 335 335 333 333 334 332 332 329 326 327 331 333 333 333 334 334 335 336 336 335 333 331 330 331 330 330 331 331 329 329
340 338 345 344 336 335 334 334 337 341 344 344 343 338 334 333 333 334 335 337 337 337 336 336 333 333 331 329 328 328 328 329 328 327 327 330 335 340 341 341 341 341 340 337 335 336 337 338 336 335 334 334 334 333 332 333 334 332 331 332 331 329 328 327 327 328 329 329 331 335 336 335 336 336 335 334 332 332 331 329 329 330 330 329 330
339 337 341 341 335 334 333 334 336 341 344 345 343 339 335 333 333 334 335 337 337 337 337 337 335 335 332 329 327 327 328 328 328 328 329 333 338 341 342 342 341 341 339 337 337 337 337 336 335 335 334 332 332 332 333 333 334 332 331 332 332 330 330 331 330 329 329 327 328 332 334 335 336 335 336 334 332 332 332 331 330 330 329 329 329
338 336 337 338 336 333 333 334 336 341 345 344 344 340 336 333 333 333 336 337 338 337 337 336 335 334 333 331 329 328 329 327 327 328 329 335 341 342 342 342 341 341 339 338 338 339 338 337 336 337 335 331 331 333 334 334 333 331 332 333 333 332 334 333 332 331 330 328 327 328 331 334 335 335 335 333 332 332 331 331 331 331 331 330 328
338 335 335 336 335 334 332 334 337 342 346 345 344 343 338 334 334 333 336 338 338 337 336 336 335 335 334 333 331 331 330 330 330 330 332 335 339 341 342 341 341 341 340 340 340 340 339 338 338 337 336 332 330 332 333 333 332 332 333 334 333 334 336 335 334 333 331 329 327 326 327 332 334 334 335 334 333 333 332 331 330 331 331 331 329
337 335 333 334 334 333 333 334 337 342 347 345 344 343 339 335 334 333 335 338 337 337 336 335 335 334 334 334 333 332 330 330 329 330 332 333 337 340 341 341 341 340 340 340 340 341 339 339 338 336 335 331 328 330 331 332 333 333 334 333 334 334 335 335 336 335 332 330 328 326 325 328 332 333 334 334 334 333 334 332 330 330 330 330 329
336 333 333 332 333 333 333 334 338 343 346 346 344 342 340 336 335 334 334 337 337 336 336 335 335 334 334 334 333 331 328 326 325 325 326 327 333 338 340 340 340 339 339 339 340 340 339 339 338 336 334 328 325 328 330 331 332 333 333 333 334 335 335 336 336 335 332 331 328 326 324 326 331 333 334 334 334 334 333 331 331 330 329 330 330
335 333 332 331 334 335 333 335 339 343 345 345 344 342 341 338 335 333 334 336 336 336 335 335 334 334 334 333 331 329 325 323 322 322 323 325 330 335 337 338 338 338 338 338 339 339 339 339 337 336 333 328 324 327 330 330 331 331 331 332 332 333 333 333 334 334 333 331 327 325 325 326 329 331 333 335 334 333 331 330 330 330 330 330 328
335 333 331 331 336 335 332 336 340 341 342 344 343 343 342 339 335 333 333 336 336 335 334 334 333 333 333 331 329 326 324 324 324 325 325 326 329 332 334 336 337 337 337 337 338 339 339 338 336 335 332 330 327 326 328 329 329 329 329 328 329 329 329 330 332 334 333 330 327 326 326 326 329 331 333 334 334 332 330 329 329 329 330 329 328
334 332 330 331 334 331 329 335 339 339 340 340 341 342 341 339 336 333 333 336 336 335 334 334 334 333 332 329 326 324 324 327 328 328 326 326 327 331 332 334 336 336 336 336 337 338 338 337 334 333 331 329 328 326 327 328 328 327 327 327 328 329 331 333 334 335 332 330 328 327 326 325 327 331 333 333 333 331 330 330 330 330 329 329 329
333 331 329 329 331 328 328 334 337 338 338 338 340 341 341 339 338 335 334 336 336 334 334 333 333 332 331 327 324 324 327 330 330 329 327 326 325 328 331 333 335 336 336 336 336 336 335 334 332 331 329 328 326 325 324 325 326 326 327 328 330 331 333 334 334 334 332 331 329 329 327 327 329 331 332 333 333 331 331 330 330 330 329 329 329
332 330 328 328 328 327 328 333 336 336 337 337 338 340 340 339 339 337 335 337 336 335 334 334 333 332 330 326 324 327 330 331 329 329 328 327 325 326 327 330 333 335 335 335 335 335 333 331 330 329 327 327 326 324 322 322 325 326 328 330 332 333 334 334 333 332 331 330 330 329 328 327 331 333 332 332 332 331 331 330 329 330 329 329 328
331 329 327 326 327 326 328 333 334 334 336 336 337 338 339 339 339 338 337 337 336 335 334 333 333 332 328 324 326 330 330 330 330 329 328 327 327 326 326 328 330 333 334 333 333 332 329 327 327 327 327 327 325 323 322 323 324 326 328 331 333 333 333 334 332 331 331 331 330 330 328 327 329 331 332 331 331 330 330 330 330 329 329 329 328
333 329 327 326 326 326 327 331 333 334 335 335 335 336 337 339 339 338 338 337 336 335 334 333 333 331 326 324 329 331 331 331 330 330 328 328 327 327 327 327 327 329 330 329 329 328 325 324 325 327 327 328 325 323 323 323 324 326 329 332 333 333 333 333 332 332 332 332 331 329 327 326 325 329 331 331 331 330 330 330 330 330 329 329 329
333 330 327 326 326 326 327 329 331 332 334 335 335 335 336 338 339 339 338 337 336 335 333 333 332 329 325 327 330 331 332 331 330 330 329 328 327 328 328 328 327 327 327 327 327 326 323 322 325 328 328 328 327 325 323 322 324 327 330 333 332 332 333 333 333 332 332 332 330 327 326 325 324 327 329 330 331 330 330 330 330 330 329 329 329
331 329 328 327 326 325 326 326 327 329 331 333 333 333 335 338 340 339 339 337 335 334 334 333 332 328 326 328 329 331 333 332 332 331 330 328 327 327 327 328 328 328 328 327 327 327 323 322 325 328 328 329 328 326 324 322 323 327 330 333 332 332 333 333 333 332 332 331 330 328 327 325 324 324 323 327 331 329 330 330 330 330 329 329 329
331 330 329 327 326 325 326 326 327 327 328 331 332 332 333 336 338 338 338 336 335 335 334 333 331 328 328 328 330 331 333 334 333 333 332 329 327 327 327 327 327 328 328 329 329 329 326 323 325 328 328 328 327 327 326 322 322 328 331 333 332 331 332 333 333 332 332 331 330 330 329 327 325 323 319 323 329 330 329 329 329 329 329 329 329
331 331 330 328 326 325 326 326 327 326 327 329 331 331 331 334 337 338 337 336 336 335 334 333 330 329 329 330 332 334 335 336 335 334 334 331 329 327 327 327 327 327 328 329 330 330 328 325 325 327 327 327 326 327 327 324 322 327 331 332 332 331 332 333 333 332 331 331 330 329 329 328 326 324 320 321 327 330 328 328 328 328 328 329 329
333 332 332 329 326 326 326 327 327 327 328 329 330 329 331 336 338 335 334 336 335 334 333 333 332 331 332 334 335 337 338 338 337 337 336 333 331 328 328 327 327 327 328 329 329 331 330 327 326 326 326 325 325 326 327 326 322 325 331 331 332 332 332 332 332 331 331 329 328 329 329 329 326 324 322 321 326 329 328 327 327 328 328 328 328
336 333 332 329 327 326 326 327 326 327 329 331 333 334 336 337 335 332 333 335 335 335 336 336 335 334 336 338 339 338 338 338 338 339 338 336 333 330 328 327 327 327 328 329 329 330 330 327 326 327 327 325 323 324 327 327 324 325 331 332 332 333 333 332 331 331 329 328 327 328 327 328 326 325 324 323 325 329 328 327 327 327 328 328 329
338 336 335 331 328 327 326 326 325 327 331 333 335 339 340 336 331 332 333 334 335 338 338 337 336 336 339 337 336 337 338 339 339 339 340 338 335 332 329 327 326 326 327 329 329 329 329 328 327 328 328 326 324 325 327 328 326 328 331 331 333 333 332 331 331 329 327 327 326 325 326 327 327 327 327 325 326 328 328 327 327 327 327 328 329
340 339 338 335 331 328 327 326 326 328 332 335 335 336 338 336 333 333 333 335 337 336 334 333 334 337 339 333 331 335 336 337 337 338 340 339 336 334 331 328 325 325 326 327 328 328 328 328 327 328 329 328 326 325 327 328 328 330 330 330 334 334 331 330 330 328 327 326 324 322 324 326 328 329 329 328 327 328 328 328 327 327 327 328 328
341 341 341 338 334 331 328 327 328 330 333 337 336 333 336 337 336 334 334 335 335 332 332 332 333 337 337 333 331 333 332 332 333 336 339 337 336 335 334 330 326 326 327 326 327 327 327 328 328 328 329 329 327 326 326 327 328 329 329 331 335 334 331 331 329 328 328 325 322 321 323 326 329 331 330 329 327 327 328 328 327 327 327 327 327
342 343 344 341 338 335 333 330 329 332 335 338 338 335 336 337 336 335 335 334 333 332 332 331 333 337 337 335 333 332 331 331 334 338 337 334 334 335 334 331 329 328 327 325 325 325 326 328 329 328 327 327 325 326 326 327 329 329 331 333 335 335 333 331 329 328 327 325 322 321 323 327 329 331 331 329 327 327 328 328 328 327 327 326 326
343 344 346 344 340 338 337 334 333 336 338 340 339 338 339 338 335 337 336 333 333 333 332 329 331 336 337 338 336 333 333 334 337 338 336 334 335 336 333 331 330 329 326 326 326 325 326 327 328 327 325 325 326 327 327 327 329 332 332 333 333 335 334 332 330 329 328 326 323 321 323 326 329 331 332 330 327 328 329 328 328 327 327 326 326
343 345 347 347 344 341 340 339 340 342 344 343 340 342 342 339 336 338 338 334 332 333 332 332 332 333 336 337 338 336 335 335 337 336 335 335 336 336 331 328 329 329 326 327 329 328 327 326 326 327 325 324 326 328 328 327 328 331 332 332 333 334 334 334 332 330 329 327 322 320 322 324 327 328 329 329 328 329 328 328 328 327 326 326 325
344 346 348 349 347 347 345 342 343 343 345 345 342 342 341 338 336 336 338 337 335 335 334 334 333 333 335 335 336 337 335 333 334 335 335 333 334 334 330 329 329 329 328 328 330 330 329 327 326 327 326 326 328 329 329 329 329 329 330 332 333 333 333 334 332 331 330 326 321 319 320 320 321 322 323 327 330 330 328 327 327 325 325 325 325
344 346 348 349 348 348 347 344 344 344 344 344 342 341 338 338 337 333 336 340 338 337 335 335 334 335 335 334 335 337 335 332 333 334 335 332 333 333 330 331 330 330 330 329 331 331 330 330 328 329 329 330 331 330 330 330 330 329 329 331 331 332 332 334 333 332 330 325 321 320 318 318 318 317 319 323 328 329 328 326 325 324 323 322 323
344 345 345 347 348 346 346 344 343 343 344 345 344 342 338 337 338 335 337 340 338 337 336 335 335 336 336 335 336 337 334 331 333 334 334 333 335 334 332 332 332 332 332 331 331 332 331 331 331 331 331 332 332 331 330 329 328 328 328 329 329 331 332 333 333 333 331 327 322 322 320 320 319 318 318 319 324 327 327 327 325 324 322 320 320
344 343 344 347 347 344 343 342 343 343 343 343 342 341 339 338 336 335 335 337 336 334 334 334 333 335 337 336 336 337 334 330 332 333 331 333 335 335 335 335 334 335 334 333 332 331 332 332 332 332 332 332 332 330 330 329 327 328 327 327 327 329 331 333 333 333 333 329 324 324 323 323 322 320 319 319 323 325 327 327 324 323 323 320 318
343 342 343 345 345 343 340 338 340 341 340 337 337 339 339 337 334 333 334 333 333 333 332 333 333 334 335 335 336 336 333 330 331 333 332 334 336 335 335 336 336 335 335 334 333 331 332 333 332 333 333 333 332 331 330 330 328 328 327 327 327 329 330 331 332 332 333 331 326 325 325 326 325 323 321 321 323 325 326 326 325 325 324 321 318
343 342 342 344 344 342 337 335 336 338 339 336 335 338 339 338 335 334 334 333 332 332 331 333 333 334 335 335 335 333 332 332 333 333 333 335 337 337 336 335 335 335 334 333 332 331 332 333 333 333 333 333 332 331 331 330 330 330 328 327 328 329 329 330 330 331 333 332 329 327 326 327 326 325 323 322 323 325 326 326 326 326 326 325 321
339 341 341 342 343 341 337 337 338 339 339 336 335 336 337 337 335 334 334 333 333 331 330 332 334 336 336 336 334 332 334 335 334 332 332 334 334 334 335 333 332 333 332 331 330 331 332 333 332 331 332 332 332 331 331 330 330 330 329 328 328 329 330 329 329 330 332 333 332 329 327 327 327 326 325 324 324 325 325 325 327 327 327 327 326
333 337 340 341 341 340 338 338 338 338 337 334 333 332 333 333 333 333 332 333 334 333 332 331 333 336 336 336 335 334 335 334 334 331 332 334 332 331 332 331 330 331 330 330 330 331 331 331 331 330 331 331 331 330 330 330 330 330 329 329 329 329 329 330 329 329 329 331 332 331 329 329 328 327 326 326 325 325 325 325 326 327 327 328 328
332 336 339 338 338 337 337 336 335 335 334 332 332 332 331 331 334 335 333 335 335 335 335 332 332 333 334 335 335 334 333 331 332 331 332 334 332 331 332 331 330 330 330 331 331 332 330 330 330 329 330 330 329 329 329 329 329 329 329 329 329 329 329 329 328 328 328 328 329 330 331 330 330 329 327 326 326 326 327 326 326 327 327 327 328
335 337 337 336 336 336 335 334 334 333 333 332 331 331 330 331 333 334 333 335 335 334 335 334 331 329 329 331 332 332 330 327 327 328 333 333 332 333 333 333 332 330 332 332 331 331 330 329 328 327 328 328 329 328 328 328 329 328 328 327 327 327 327 327 326 327 327 327 327 328 329 330 331 331 329 328 327 327 327 327 327 328 328 327 327
336 336 335 335 334 333 331 332 333 332 330 328 327 328 328 328 329 331 331 332 333 334 334 333 332 330 328 328 329 329 327 325 325 327 333 332 332 333 333 333 332 331 332 332 331 330 329 328 328 326 325 325 326 326 326 326 326 326 326 324 324 325 325 325 324 324 326 326 326 326 327 328 329 330 330 329 329 328 328 328 328 328 329 328 328
336 334 334 334 332 331 329 330 332 330 327 325 326 326 325 326 327 328 330 331 332 335 334 332 331 331 330 329 330 331 329 328 326 328 332 332 331 332 332 333 332 332 332 332 332 331 329 329 327 326 325 324 323 323 324 324 324 325 325 325 325 326 326 325 324 323 323 325 325 325 325 326 327 327 329 329 329 329 329 329 328 329 329 328 328
334 333 333 332 332 331 329 331 331 328 326 326 326 326 324 324 326 328 330 331 332 333 333 332 331 331 331 331 331 331 331 330 330 330 331 330 330 330 332 332 332 332 332 331 332 331 330 329 328 327 326 325 325 324 325 327 328 329 329 329 330 329 328 326 324 323 322 322 324 324 324 326 327 327 328 330 329 330 331 330 329 329 329 329 329
334 332 333 332 331 330 329 331 330 326 327 327 325 324 323 322 325 330 330 330 329 328 328 329 330 330 330 330 331 331 330 330 331 331 331 331 332 332 332 331 332 332 331 331 332 332 331 330 328 327 326 326 325 327 329 330 331 331 331 332 332 330 328 326 323 321 321 320 321 322 323 324 326 328 329 330 330 330 332 332 331 330 330 330 330
333 332 332 332 331 329 330 331 327 324 327 327 324 322 322 322 327 330 330 328 327 326 326 325 325 326 326 327 327 328 329 329 329 329 329 331 332 332 331 329 330 331 331 331 331 330 330 329 329 328 327 327 328 329 330 331 331 331 331 331 333 330 327 326 324 322 320 320 320 320 322 323 325 328 330 330 330 330 331 331 331 331 331 331 331
332 332 332 332 331 331 332 331 326 323 326 326 322 321 322 324 326 328 328 326 325 324 324 323 323 322 322 322 323 323 324 325 326 326 326 328 328 329 329 328 329 329 330 330 330 329 328 328 328 327 327 328 329 329 329 330 330 329 329 331 332 331 330 328 325 323 320 320 321 321 321 322 323 325 328 329 328 329 329 330 330 330 331 332 332
331 332 333 332 332 332 332 331 325 320 325 325 322 323 322 323 325 325 325 322 321 321 320 322 322 321 321 320 320 319 320 321 323 325 325 325 326 326 326 328 328 328 329 329 329 328 327 327 326 327 328 327 327 328 329 329 329 329 330 330 329 331 336 331 326 325 321 320 321 321 321 321 322 323 325 326 324 325 326 327 329 330 330 331 331
330 333 334 333 333 333 332 331 324 319 324 325 322 324 323 323 324 323 322 321 321 320 319 320 320 320 320 320 320 319 320 320 320 321 322 323 326 327 326 327 328 328 329 328 328 327 327 326 326 326 327 326 327 329 329 329 328 329 329 330 330 333 335 329 327 327 323 320 319 318 319 318 319 320 322 323 321 322 323 323 325 327 329 330 330
330 333 334 334 333 333 332 331 322 318 324 325 323 324 323 323 323 321 321 321 321 320 319 318 318 319 319 319 320 320 319 320 320 320 321 322 325 327 326 327 328 328 328 328 328 327 327 327 326 326 326 327 328 329 329 328 328 329 328 330 330 332 331 328 329 330 325 323 321 320 320 319 319 320 321 322 322 322 322 322 322 323 327 330 330
330 333 334 334 334 332 332 329 320 319 324 325 324 324 322 322 322 321 321 320 320 319 319 319 318 318 319 319 319 319 319 319 319 319 320 319 320 322 323 324 326 327 326 327 327 327 327 327 327 327 328 329 328 328 330 329 328 328 328 328 327 328 329 327 329 330 328 327 325 323 323 323 324 324 323 323 323 324 323 324 324 322 325 326 326
330 333 333 333 333 332 331 326 319 321 325 324 324 322 322 322 321 320 318 318 320 319 320 319 318 318 318 319 319 319 319 318 318 318 318 318 317 319 320 321 323 324 324 325 325 326 327 327 327 327 328 329 328 328 330 330 330 328 328 328 327 327 328 327 328 328 328 328 327 325 320 318 321 321 320 321 322 323 322 323 323 321 321 322 322
330 333 333 333 332 330 330 325 318 322 325 322 322 322 322 322 320 319 318 319 320 320 319 318 317 318 318 319 319 318 319 317 317 316 316 317 318 319 320 320 322 322 322 322 322 323 323 324 325 325 327 328 327 328 328 329 328 327 327 327 326 326 325 324 323 324 326 327 328 327 318 314 317 317 317 317 318 320 319 319 321 319 320 320 320
330 332 332 332 331 330 329 325 319 322 324 321 322 321 320 320 318 318 318 319 320 319 318 318 317 318 319 319 318 317 317 317 316 315 314 315 315 316 316 317 319 320 321 320 320 320 320 320 321 323 325 325 322 322 323 325 326 326 326 324 324 323 318 315 314 316 320 321 324 322 315 313 316 315 315 316 317 318 319 318 319 319 321 322 318
330 331 332 332 331 330 329 325 319 322 323 320 321 321 320 318 317 317 318 319 320 319 318 317 317 319 319 318 316 315 314 314 314 314 313 312 312 312 310 310 312 316 317 318 318 318 318 317 318 319 321 319 317 316 317 320 322 322 321 320 320 317 312 311 312 311 312 313 318 317 311 312 314 313 314 316 317 317 318 318 320 320 321 322 321
Wind_Speed
20 22 23 21 22 21 21 21 21 21 23 23 23 23 23 22 22 21 21 19 18 18 18 18 19 19 19 19 18 18 18 19 19 19 18 17 16 15 15 15 15 15 15 16 16 16 17 17 17 17 17 17 15 15 16 16 16 17 18 18 18 20 20 19 19 19 18 17 16 15 16 16 16 16 15 15 15 15 16 16 16 17 17 15 15
23 23 21 20 22 20 21 20 20 21 22 23 23 23 23 23 22 21 21 19 19 18 18 17 18 18 18 18 17 17 17 17 17 17 16 15 15 15 15 14 14 14 15 15 16 17 16 16 16 17 17 16 15 15 16 16 16 17 18 18 19 19 18 18 18 17 16 16 16 16 15 16 16 15 14 14 15 14 14 14 14 15 16 15 14
28 24 20 20 22 20 21 20 20 21 21 22 22 23 23 23 22 21 21 20 19 18 18 17 17 17 17 17 16 16 16 15 15 15 15 14 14 14 14 13 14 14 14 15 16 17 16 15 16 15 15 15 14 14 15 15 16 17 18 19 18 19 19 19 18 17 16 16 17 17 16 15 14 14 14 13 14 15 14 14 14 15 14 14 14
30 25 21 21 20 20 20 19 20 20 21 21 21 22 23 23 22 22 21 20 20 19 18 17 16 16 16 16 16 15 15 15 14 14 14 14 14 12 12 12 13 13 14 15 16 16 15 14 14 14 14 14 13 14 15 16 16 18 20 20 19 21 21 20 20 19 17 16 16 17 17 16 15 14 14 13 14 15 15 14 15 15 14 14 14
31 26 23 21 20 20 19 19 19 19 20 20 21 21 22 23 22 22 21 21 20 20 18 17 16 15 15 15 15 15 15 14 14 13 13 12 12 11 11 12 12 13 15 15 15 15 14 14 14 14 13 13 13 14 15 16 17 20 22 21 21 22 21 21 21 20 17 15 15 16 17 16 15 14 13 13 14 15 15 15 15 14 14 14 14
31 27 23 21 19 18 18 19 19 19 20 20 20 20 22 22 22 22 21 21 20 20 18 17 16 15 14 13 13 13 14 13 13 12 12 11 11 11 11 11 12 13 14 15 14 14 14 15 15 14 13 13 13 14 15 16 18 21 22 21 21 22 20 20 19 18 15 14 14 15 15 16 16 14 13 13 13 14 14 14 13 13 13 14 14
30 28 24 22 20 18 18 18 18 19 19 20 20 20 21 22 22 21 21 21 20 20 18 17 15 14 13 12 12 12 12 13 12 12 11 11 12 12 11 11 12 12 14 14 12 13 13 14 14 13 13 13 13 14 16 18 19 19 19 19 19 20 20 19 16 15 14 12 12 13 14 16 16 14 13 12 12 13 13 12 12 12 13 14 14
29 27 24 22 20 18 18 17 18 18 19 19 19 20 21 21 22 22 22 21 20 20 18 17 14 13 13 12 12 11 11 11 11 11 10 11 12 13 12 11 11 12 13 12 12 12 12 13 14 12 11 12 12 14 16 17 18 17 16 15 16 16 16 15 13 14 14 11 10 12 14 14 15 14 12 11 12 13 12 12 12 12 13 13 13
28 25 23 21 19 18 17 17 17 17 18 18 18 19 20 21 21 22 22 21 20 20 18 16 14 13 13 12 11 11 11 11 11 11 11 10 11 12 12 11 11 13 12 11 12 12 13 13 12 11 10 11 11 13 15 15 15 15 14 13 12 12 11 9 10 13 13 11 11 12 12 12 13 14 13 11 9 9 10 12 13 13 13 12 12
27 24 23 20 18 17 17 17 17 17 17 18 18 19 20 21 21 22 22 22 21 19 18 16 14 14 13 13 12 11 11 11 12 12 11 11 11 12 12 12 11 12 11 11 12 13 13 13 11 10 10 10 11 11 12 13 13 12 12 11 10 9 7 7 10 14 14 13 12 12 11 10 12 14 13 10 8 8 9 11 13 13 12 12 12
26 24 23 20 19 17 18 18 17 17 17 17 18 19 20 20 21 23 23 22 20 19 18 16 15 14 14 13 12 12 12 12 12 12 12 11 11 11 11 11 11 11 10 10 11 12 12 10 9 8 8 8 8 9 10 11 11 11 11 10 9 9 8 9 14 17 16 13 12 11 11 10 12 14 13 11 9 9 10 11 12 12 12 12 12
26 25 22 20 18 17 18 18 18 17 17 17 17 18 19 20 21 23 23 22 20 19 17 16 15 14 14 13 13 13 13 13 13 12 12 11 11 11 10 10 10 11 10 9 9 9 9 7 7 7 7 7 7 8 10 10 10 11 11 10 10 11 11 13 16 18 15 12 11 11 10 11 12 13 13 12 10 10 11 11 11 12 12 11 12
26 24 22 20 18 17 17 17 17 17 17 17 17 18 18 20 21 22 23 22 20 19 17 16 15 15 14 13 14 13 13 13 13 12 12 11 11 10 10 9 9 10 10 9 8 8 7 6 6 7 7 7 7 8 10 11 10 11 11 11 13 13 13 15 17 17 14 12 11 10 10 11 13 13 13 12 11 11 12 11 11 11 12 11 11
27 24 22 20 18 17 17 17 17 17 17 17 17 18 18 19 20 21 22 21 20 18 18 17 16 15 14 14 14 13 12 12 12 12 12 11 11 10 9 9 9 9 9 9 8 8 7 7 7 8 8 8 8 8 11 13 11 11 12 12 13 13 13 15 15 14 12 11 11 10 9 10 12 13 14 13 11 11 11 11 11 11 11 11 10
28 26 23 20 19 18 17 17 17 17 17 17 17 17 17 18 19 20 21 21 20 18 17 16 16 15 14 14 13 12 10 11 11 11 11 11 11 10 9 8 8 8 9 8 8 9 8 8 9 8 9 9 9 9 11 13 13 13 13 12 11 12 13 15 14 13 11 11 10 9 9 10 12 13 14 14 12 11 11 10 11 11 11 10 9
28 27 25 22 20 19 18 18 17 17 17 17 17 17 17 18 18 20 21 20 19 18 16 16 15 15 14 14 12 11 10 10 9 9 9 9 10 10 9 9 8 8 8 8 9 9 9 9 9 9 9 9 10 9 9 12 14 14 13 12 11 12 13 16 15 12 11 9 9 9 10 10 12 13 14 13 12 11 10 10 11 10 10 10 9
28 28 27 24 22 21 20 18 17 17 17 17 16 16 17 17 18 19 20 19 18 17 15 15 15 15 14 13 12 10 10 9 8 8 8 8 9 9 9 8 8 8 8 8 9 9 8 8 8 8 8 8 9 8 7 11 14 14 12 12 12 12 13 17 15 12 10 9 8 8 9 10 10 10 11 13 12 11 11 11 10 10 10 10 9
30 29 27 26 24 23 21 19 18 17 16 16 16 16 16 17 18 19 18 17 16 15 14 14 14 14 14 13 11 10 9 8 7 7 7 8 8 8 8 8 8 7 7 7 7 8 7 7 7 7 7 7 8 7 6 9 13 14 12 12 12 11 12 17 15 12 10 9 8 7 8 8 7 7 8 11 12 11 10 11 11 10 9 10 9
29 28 28 27 25 24 22 21 19 18 16 16 15 15 15 16 18 18 16 15 14 14 13 13 13 13 13 12 11 9 8 6 6 6 6 6 7 7 7 7 6 6 6 5 6 6 6 7 7 6 6 6 7 7 5 8 12 13 12 11 11 10 11 15 15 11 10 9 6 5 6 6 5 6 7 10 12 11 10 10 11 11 9 8 8
26 27 28 27 25 25 24 23 21 19 18 16 15 14 14 16 17 16 16 16 15 14 13 12 13 12 11 11 10 9 9 8 7 6 6 6 6 6 7 6 6 5 5 4 5 5 5 6 7 7 6 7 8 7 5 7 11 13 11 10 8 8 9 14 14 11 9 7 5 4 5 6 6 6 8 10 12 11 10 9 10 10 9 8 8
24 26 27 26 26 26 26 24 22 20 19 18 16 15 16 16 16 15 16 17 16 14 12 11 11 12 11 10 10 10 10 10 10 9 8 7 6 5 6 7 6 5 4 4 4 4 5 6 7 8 7 7 8 7 6 8 11 12 11 8 6 5 8 14 14 10 8 6 5 4 5 7 7 8 9 10 12 11 10 9 9 10 10 8 7
24 24 24 26 26 27 26 24 22 20 20 19 18 18 18 17 16 16 16 15 14 12 10 10 10 11 10 9 10 11 11 12 12 12 11 9 7 5 5 5 5 5 5 4 5 5 6 7 7 7 8 7 7 7 7 9 11 12 11 8 6 5 8 15 13 9 7 6 5 4 6 8 8 9 10 11 12 12 10 9 9 9 10 9 7
25 25 25 26 27 27 25 24 22 21 20 19 18 19 18 18 17 16 14 13 11 11 11 11 11 10 10 9 11 12 13 13 13 13 12 11 9 7 6 4 4 5 6 5 5 5 6 7 7 7 7 7 7 7 7 9 11 13 11 7 6 4 7 13 11 8 7 5 5 5 7 8 9 10 11 12 12 13 12 10 9 9 9 9 8
27 27 26 26 26 26 25 24 22 20 20 18 17 19 19 18 16 14 13 12 11 12 12 12 12 11 11 10 11 12 13 12 12 12 12 12 12 9 7 6 5 5 6 5 6 6 6 8 8 7 7 7 6 6 7 9 11 12 9 6 6 5 6 12 11 8 6 5 5 5 7 8 9 10 10 11 11 12 12 11 10 10 9 9 9
28 29 27 26 25 24 24 23 22 20 19 18 17 18 18 17 16 15 13 13 13 14 13 12 12 13 12 11 11 11 12 12 11 11 10 9 10 9 8 9 8 7 7 6 6 7 7 8 9 9 9 8 7 6 6 8 11 10 9 7 6 5 6 11 10 8 7 6 5 6 7 9 9 10 10 10 10 12 12 11 10 10 9 9 9
25 28 28 27 25 24 23 22 22 21 20 19 18 18 18 16 16 17 15 14 14 13 12 14 15 15 15 13 13 12 13 13 11 11 10 7 7 9 10 11 11 9 8 8 8 7 7 9 9 9 10 10 8 7 7 8 10 9 8 7 6 4 5 10 11 9 7 7 6 6 7 8 9 10 10 9 9 11 12 12 11 10 10 10 9
24 28 28 27 26 24 22 22 21 20 20 20 18 18 18 15 14 16 15 15 14 12 14 17 18 16 15 15 15 15 14 14 12 11 10 8 9 12 12 13 14 12 10 9 9 8 9 9 9 9 10 10 9 7 5 6 8 7 6 5 5 3 4 8 11 10 8 7 7 7 7 7 7 9 9 9 9 10 11 12 11 10 10 10 9
25 28 29 27 27 24 21 20 17 18 18 17 16 18 18 16 16 16 16 16 16 16 17 19 20 16 16 16 17 18 16 15 13 12 12 9 12 14 13 14 16 15 12 10 10 9 10 10 11 11 11 10 8 5 4 6 8 6 4 5 5 4 4 7 11 10 9 9 8 8 7 6 6 7 7 8 11 10 9 10 11 10 10 10 10
25 27 27 25 25 23 21 19 17 18 16 15 16 17 18 20 18 16 17 19 20 20 19 19 19 16 17 16 18 20 18 16 13 14 14 11 14 16 14 16 16 16 14 12 12 11 11 12 12 12 11 9 6 5 5 8 9 6 4 7 7 5 5 8 11 10 9 10 10 9 8 6 6 5 5 7 10 9 7 7 8 7 8 10 10
24 25 24 22 23 22 21 20 19 18 15 15 17 16 16 18 18 15 19 23 21 20 19 19 19 17 19 18 19 19 18 17 15 16 16 14 19 18 15 15 14 15 15 12 12 12 11 12 13 13 11 9 8 8 9 10 11 9 8 9 8 6 6 8 10 9 9 10 11 10 9 7 6 5 5 7 8 8 7 6 5 5 6 9 10
24 25 24 23 24 23 19 18 18 17 16 15 15 15 14 15 19 18 18 18 16 15 16 17 17 18 21 21 20 18 17 18 17 17 16 15 20 19 16 15 14 15 16 14 12 11 11 12 13 13 11 9 11 11 10 12 12 10 10 9 7 7 7 8 8 8 9 11 11 11 10 8 7 6 5 6 7 7 7 6 5 4 4 7 9
26 26 26 26 27 25 19 16 16 16 15 12 12 13 12 16 22 19 14 11 9 11 13 13 13 16 19 21 21 19 17 17 15 16 16 15 17 17 16 16 15 15 16 16 13 12 13 14 14 13 12 11 13 12 11 12 12 11 11 9 7 7 8 8 8 8 10 11 11 12 10 9 8 7 6 5 6 7 7 6 5 4 3 5 8
25 25 25 25 27 24 18 16 16 16 14 11 10 10 11 17 19 13 11 10 8 9 11 13 13 13 14 14 16 18 18 17 15 16 16 16 16 16 16 16 16 16 15 15 14 15 14 15 14 13 13 13 13 13 12 11 11 11 11 9 8 7 7 7 6 6 10 12 11 12 12 10 8 7 7 7 7 7 7 7 5 5 4 4 5
18 23 24 24 26 23 18 17 16 16 15 12 12 12 12 14 12 10 9 9 9 8 9 13 14 14 14 12 14 17 18 18 18 17 15 16 16 15 15 15 17 17 15 15 17 17 14 14 14 13 14 15 14 13 12 12 10 10 10 9 8 6 4 5 5 4 7 10 11 12 12 11 9 8 8 8 8 8 7 6 6 6 5 5 5
12 20 25 25 27 23 21 21 18 18 17 16 16 15 13 12 11 11 9 9 13 9 8 12 14 14 15 15 14 16 18 19 17 14 13 15 16 15 14 14 15 16 15 16 18 17 15 14 14 14 15 15 15 13 12 11 10 10 9 8 7 6 4 3 4 4 5 6 8 11 13 12 10 9 10 10 10 10 9 8 7 7 7 7 7
17 23 28 27 27 25 24 24 22 21 19 17 16 15 14 13 13 13 10 12 14 9 8 11 12 13 12 12 14 15 18 19 17 15 14 14 14 14 13 12 14 15 15 16 17 17 16 16 16 16 17 17 16 14 12 12 11 10 9 8 7 6 5 4 4 4 6 6 5 7 10 13 12 11 11 11 11 11 10 10 8 7 7 8 8
23 27 28 27 27 24 22 21 22 21 19 17 15 14 13 12 12 12 11 11 10 8 8 9 9 11 11 11 14 16 16 17 18 19 17 14 14 13 12 11 14 16 16 16 16 16 16 16 16 15 16 16 16 14 13 12 10 10 9 7 6 4 4 3 2 2 3 4 5 4 6 9 12 13 14 14 13 13 12 12 11 10 9 9 9
25 26 25 25 24 22 20 20 20 18 16 15 14 14 13 13 12 11 10 11 12 9 8 8 7 9 10 10 13 15 12 13 16 17 17 16 14 13 13 12 14 17 16 15 16 16 15 15 15 15 14 14 15 15 13 11 9 9 7 5 4 3 2 1 2 2 1 2 3 3 4 5 7 9 11 13 15 16 15 14 14 13 12 11 10
26 25 24 23 21 19 18 19 17 15 15 15 16 16 14 14 13 12 11 13 14 12 11 11 10 9 10 9 11 12 11 12 14 14 17 17 14 14 14 12 14 17 16 14 14 15 15 14 15 15 13 12 12 12 11 9 7 7 7 6 5 4 3 2 3 4 5 4 3 2 3 4 5 5 5 8 12 16 18 18 17 16 15 14 13
27 25 24 22 20 19 18 18 16 15 17 17 17 16 14 14 15 15 15 14 14 15 15 14 13 12 11 10 11 12 14 16 16 15 16 15 14 13 13 12 14 16 15 13 12 12 12 12 12 13 12 11 10 9 8 7 6 5 6 6 6 4 4 3 3 4 5 7 7 5 4 4 5 4 4 5 8 13 17 19 20 19 18 17 16
28 26 25 23 21 20 20 19 17 17 19 19 17 17 16 15 17 19 18 16 15 16 16 15 15 14 12 12 12 12 14 16 17 17 16 14 13 12 10 9 11 13 13 12 10 9 10 9 9 10 11 10 9 8 7 7 7 6 6 6 5 4 4 3 2 3 5 7 9 8 7 5 4 4 3 4 6 7 10 15 19 20 21 20 18
29 29 27 25 23 22 22 21 19 19 20 19 18 18 17 17 20 23 21 19 16 16 17 16 16 16 15 15 14 12 11 11 12 13 12 12 13 12 9 7 8 10 11 11 9 8 8 8 9 10 9 7 8 9 8 8 7 4 4 4 3 3 4 4 3 3 5 6 8 7 7 7 5 3 3 3 6 7 6 10 15 18 21 21 20
31 31 29 28 27 25 25 23 22 22 21 20 19 19 18 17 21 24 22 19 17 15 15 15 15 16 15 15 14 12 11 10 9 8 8 9 9 9 8 6 6 8 10 10 10 8 9 9 9 9 8 7 7 7 8 9 6 3 2 1 0 1 2 3 2 2 3 4 5 6 6 6 6 5 1 2 2 7 6 5 9 12 14 17 19
32 33 33 32 31 29 28 25 24 23 22 21 20 19 18 18 21 23 20 18 17 14 13 13 13 13 12 12 11 11 11 12 10 9 9 9 8 9 9 8 7 7 8 9 10 9 9 10 10 9 9 8 8 6 8 10 8 5 2 1 1 2 1 2 2 1 3 3 3 5 6 6 6 6 6 3 2 2 3 2 5 8 10 14 17
32 34 36 36 34 32 30 27 25 24 24 23 21 18 19 22 24 23 20 19 17 15 15 13 12 13 12 12 12 12 13 13 11 10 10 10 10 9 9 8 7 6 6 6 7 8 8 9 9 10 10 9 9 7 7 10 10 7 2 0 1 1 1 2 4 2 4 4 4 4 5 5 5 5 7 8 5 4 4 5 7 9 10 13 17
31 34 37 38 36 34 32 27 24 25 25 23 21 19 22 25 25 23 22 21 19 17 16 15 14 14 13 13 13 12 11 10 9 11 12 13 11 10 8 8 7 6 5 4 5 5 6 7 7 8 8 7 8 8 7 9 11 8 3 3 3 2 1 1 2 1 5 5 4 4 4 5 5 5 7 8 9 8 8 8 11 13 12 12 15
28 31 35 37 37 35 33 28 26 27 25 23 22 22 24 25 24 23 22 22 20 18 18 18 17 15 14 13 13 12 11 9 9 10 12 14 14 13 11 9 8 7 6 6 6 5 5 6 5 6 7 7 7 7 9 10 9 7 5 2 3 3 3 2 2 0 3 3 5 6 6 7 6 7 8 9 9 10 10 9 11 13 13 10 10
26 29 34 36 37 36 33 29 27 27 24 24 26 25 26 26 24 22 21 22 22 21 20 18 17 17 16 15 15 14 13 12 11 11 11 12 14 15 14 13 12 11 11 11 9 8 7 7 7 7 7 6 5 6 9 10 6 5 4 2 2 2 3 3 2 1 1 1 5 6 8 9 7 7 10 10 10 8 8 8 9 12 12 9 8
29 30 34 36 36 36 33 30 29 28 26 28 29 27 26 26 25 24 24 23 23 23 21 19 18 18 18 17 16 15 13 12 12 13 13 13 14 14 14 15 16 15 15 15 14 12 11 10 9 8 10 9 6 6 8 8 5 5 6 5 6 6 6 6 5 3 2 1 3 3 8 11 9 9 11 10 9 8 9 9 10 12 11 8 7
30 30 31 34 35 35 33 31 31 29 29 32 30 27 27 26 26 27 26 25 25 24 22 21 20 19 19 18 16 15 13 12 12 12 14 14 14 12 11 12 13 13 13 13 13 12 12 12 11 10 12 13 12 11 11 9 8 8 8 7 8 8 7 7 8 8 4 1 1 3 6 9 8 10 12 11 9 9 10 10 11 12 12 10 8
26 27 29 32 35 35 34 33 32 31 33 33 30 29 27 26 26 26 26 27 27 26 24 23 21 20 19 18 16 15 14 14 13 13 13 13 12 11 10 11 11 11 11 10 10 10 10 10 11 12 13 13 13 12 12 11 10 10 9 8 8 8 7 7 7 7 6 3 1 3 6 8 6 8 11 12 12 12 12 12 11 10 9 8 7
Wind_Direction
161 160 159 163 165 160 158 155 150 148 146 148 147 144 142 138 135 133 132 127 123 121 119 120 120 118 117 116 112 110 109 108 106 104 102 100 101 101 101 101 99 98 96 84 79 89 94 95 98 101 102 104 105 107 112 113 114 114 113 112 112 110 107 106 104 101 99 95 93 95 93 87 90 97 94 90 91 92 92 90 88 84 79 78 78
160 161 160 164 164 160 159 156 152 150 147 149 149 146 144 141 138 134 133 128 125 122 121 121 120 119 119 119 116 113 110 110 109 106 103 102 102 101 102 102 101 100 97 88 83 91 96 97 99 102 103 105 105 108 111 111 112 117 118 115 115 113 109 107 104 105 106 102 98 95 95 93 90 94 92 89 93 94 91 90 87 83 82 81 81
157 160 162 162 163 161 159 157 153 150 148 150 150 148 145 144 139 135 134 130 127 123 123 122 121 120 119 120 119 116 112 112 112 110 107 106 108 107 106 105 106 105 101 93 88 93 97 99 98 99 103 106 104 104 110 111 110 116 119 115 115 114 110 104 101 104 105 103 104 99 97 96 93 93 92 90 91 92 92 92 88 83 85 84 81
156 160 161 161 164 161 158 157 154 151 149 150 152 149 146 146 141 137 134 131 128 125 125 123 123 121 118 119 120 120 116 116 116 115 113 111 112 111 109 108 111 110 104 97 93 97 99 98 96 96 99 100 99 101 107 111 111 115 118 115 114 113 108 103 102 101 98 97 104 107 105 98 92 91 91 91 87 89 93 93 88 83 85 83 79
156 158 161 160 162 159 159 157 154 151 149 150 150 148 147 146 143 139 136 134 130 127 127 125 125 124 122 119 119 121 119 118 118 118 117 115 112 108 108 109 111 109 105 100 99 105 106 104 103 103 98 91 96 103 109 112 114 118 119 117 116 115 109 103 102 100 95 94 102 107 109 105 97 92 91 90 87 90 94 93 90 88 88 84 82
155 157 160 159 159 159 159 156 153 151 149 150 147 146 146 146 144 141 138 136 132 130 128 126 127 128 127 123 121 120 120 120 120 121 120 119 113 107 108 108 108 108 106 104 108 112 112 110 110 108 97 88 95 106 113 115 117 120 121 120 120 119 117 111 106 101 93 93 101 103 107 108 100 92 91 91 89 91 94 96 95 93 91 87 86
154 156 160 159 159 158 159 155 152 149 149 149 147 146 146 147 146 144 141 138 135 133 130 130 130 132 132 127 124 121 120 121 122 124 124 122 116 111 109 108 109 108 108 109 113 113 109 109 108 106 96 86 95 106 113 120 121 123 122 123 126 125 126 125 117 105 94 95 102 101 105 105 100 95 92 94 94 96 94 94 95 94 91 88 87
154 156 159 158 158 158 157 152 148 147 148 149 148 148 148 148 148 148 145 142 139 135 133 133 132 134 133 130 126 122 122 120 121 124 125 124 120 117 114 116 116 112 113 116 116 112 109 107 103 100 96 84 97 114 116 123 124 125 126 125 130 132 135 138 131 115 104 104 104 102 106 105 108 107 100 98 100 100 95 92 94 93 92 90 89
153 155 157 157 156 155 152 146 143 144 146 148 148 149 149 150 150 151 149 147 143 138 137 135 135 135 134 132 129 127 124 119 119 122 124 126 125 124 124 123 119 119 124 124 117 113 111 108 102 97 98 84 96 123 122 124 126 126 130 131 134 137 141 145 145 135 120 113 111 103 102 103 109 110 105 104 105 101 101 102 99 96 94 91 91
152 153 157 156 151 152 149 141 140 142 145 146 149 150 151 151 152 153 152 150 146 142 140 137 136 137 137 135 134 131 125 120 119 120 122 125 128 129 131 129 124 126 132 129 120 117 115 112 109 102 103 89 93 125 129 126 128 128 130 134 135 132 128 135 149 147 131 120 116 104 98 99 104 107 104 107 109 103 107 110 102 98 95 90 91
152 154 157 155 150 151 148 140 139 141 143 146 150 152 152 152 153 154 154 153 148 145 142 139 139 140 141 138 137 132 126 121 119 120 122 125 128 129 132 134 134 134 136 134 128 125 122 120 115 103 100 91 91 121 137 134 130 131 132 131 124 107 112 134 142 142 134 124 114 101 97 97 105 110 107 106 105 101 105 108 105 101 97 93 91
152 155 156 154 149 150 147 140 139 140 142 146 150 152 153 153 153 154 154 154 150 148 144 142 143 145 144 142 139 133 129 124 121 122 123 126 127 127 128 132 136 138 138 138 139 136 131 123 111 101 99 93 89 110 140 147 135 134 133 125 110 97 115 139 138 137 133 121 107 99 98 99 106 112 110 108 105 103 105 106 107 103 101 98 93
152 154 155 152 147 150 147 141 140 140 142 145 149 150 152 152 152 154 154 154 152 150 148 146 147 149 147 144 140 135 133 126 123 122 123 126 126 125 125 129 133 137 141 141 145 143 135 121 110 110 107 100 94 105 134 149 143 140 135 123 109 99 122 140 136 133 126 114 105 97 97 103 110 113 111 111 109 107 109 109 109 107 105 101 96
153 154 154 152 148 150 148 143 141 140 142 145 148 149 151 152 152 153 154 154 154 154 151 149 150 151 149 146 141 138 136 128 123 121 123 126 125 126 126 129 131 135 139 141 145 142 134 124 120 119 112 105 103 109 131 149 152 146 136 124 112 101 127 143 137 132 122 113 105 100 100 110 120 117 112 113 112 110 111 114 111 109 107 105 104
156 155 155 153 151 153 152 147 143 143 146 147 149 150 151 151 152 154 155 156 156 156 153 151 152 152 151 147 144 140 136 128 122 120 124 127 127 129 129 132 133 134 137 139 141 138 133 127 126 123 116 110 106 113 132 152 156 150 138 126 110 100 130 148 144 137 124 116 108 105 107 116 127 122 117 115 116 115 113 113 110 110 109 109 110
158 157 157 156 157 159 158 152 147 148 149 150 149 149 151 152 154 155 156 158 158 157 155 151 151 153 154 151 148 145 140 134 128 126 129 132 132 131 133 135 133 133 136 139 137 133 127 124 127 125 122 116 110 111 129 153 159 151 141 128 107 99 134 149 147 142 128 121 111 105 105 115 127 126 124 119 120 121 116 114 113 112 111 110 108
160 160 159 160 163 164 162 156 153 154 152 150 147 148 151 153 155 156 157 158 159 158 156 153 154 156 157 156 154 152 148 143 142 141 140 142 139 137 137 135 132 133 136 140 137 130 124 124 130 130 130 125 115 109 121 152 159 155 145 129 107 100 136 150 146 144 135 125 115 107 103 111 126 133 137 130 125 125 121 118 116 113 112 112 110
161 162 162 163 166 167 165 160 158 156 152 147 146 150 152 155 157 156 155 158 159 158 157 157 159 162 161 161 159 156 154 155 158 159 151 151 149 144 140 137 135 136 137 139 138 132 132 135 134 136 140 133 122 114 118 148 159 159 147 129 112 101 133 152 149 144 138 128 118 114 110 114 123 133 148 142 133 130 130 125 120 117 116 120 119
159 163 165 167 169 169 167 164 162 155 150 146 148 152 155 158 155 152 155 160 161 158 161 163 165 168 167 163 159 156 159 169 179 181 169 159 157 151 146 143 141 140 136 135 139 138 143 146 139 140 142 138 131 123 122 145 159 163 149 135 120 101 125 151 151 143 138 130 122 123 123 125 126 133 153 152 139 134 133 130 126 122 119 123 126
158 165 168 170 172 171 171 169 164 157 151 149 151 154 159 159 152 153 159 164 164 162 167 169 171 172 170 165 161 164 169 180 193 199 191 177 171 167 162 156 150 147 144 138 142 149 156 156 144 141 139 137 135 131 129 140 160 166 154 142 123 102 127 150 148 143 140 132 128 134 137 139 140 145 158 158 145 138 135 132 130 127 122 121 125
161 169 170 172 175 176 175 172 167 160 154 154 158 159 160 157 153 159 164 169 168 165 169 173 178 178 174 170 169 175 178 185 193 199 199 198 195 187 178 169 163 155 157 158 152 160 167 166 154 144 138 135 135 136 134 141 159 166 159 144 109 97 147 155 149 148 147 138 136 141 148 150 148 151 161 161 149 142 138 134 131 128 126 123 124
166 170 171 174 179 180 179 175 168 162 159 160 162 162 160 157 161 169 170 169 161 159 170 179 189 191 184 174 179 184 188 194 196 199 197 199 202 200 196 180 172 167 170 172 163 169 175 175 166 153 145 140 140 140 138 145 159 165 157 138 95 81 151 157 155 157 151 139 139 146 155 155 152 154 161 160 151 147 142 137 134 129 129 131 131
166 168 172 179 182 182 181 177 169 164 164 165 165 164 162 161 167 173 170 162 156 170 186 192 192 196 198 188 191 193 195 200 199 203 200 199 205 203 203 193 189 183 177 177 170 172 179 182 176 166 162 159 157 150 144 148 160 166 156 131 100 89 152 163 163 162 152 140 139 145 157 159 157 159 162 160 156 153 149 146 142 136 137 137 138
165 167 173 181 183 183 183 178 170 166 167 170 170 168 166 164 168 171 171 167 175 191 199 204 194 191 205 203 200 199 203 206 201 208 211 208 205 197 200 200 204 201 183 180 179 175 177 184 184 184 184 181 176 165 153 149 160 170 161 134 117 114 158 173 173 168 157 142 138 144 156 159 158 161 165 167 165 159 154 153 150 146 146 142 142
163 164 173 180 183 184 184 180 172 170 175 177 175 174 169 164 170 175 176 183 194 202 204 209 204 193 200 208 207 204 209 212 203 207 220 220 203 189 196 205 206 204 194 188 186 181 180 185 189 192 191 185 175 165 156 149 153 163 162 149 134 126 157 176 180 177 162 142 136 146 157 159 159 163 167 170 168 163 158 157 157 155 152 149 144
163 164 172 178 184 185 184 182 177 178 184 186 185 179 172 171 180 181 180 195 205 208 210 213 215 204 196 202 207 206 210 213 206 202 210 216 208 192 192 207 208 202 201 196 190 188 187 187 187 190 190 185 174 164 156 152 154 156 160 154 137 129 153 176 184 179 161 142 140 150 157 159 162 165 170 175 171 166 163 161 163 163 163 160 152
167 169 172 175 182 186 186 184 180 183 189 195 192 171 165 177 192 190 190 206 210 214 224 221 219 211 198 199 205 207 209 211 209 209 205 190 204 205 197 207 206 201 204 195 191 194 191 183 176 178 182 181 175 173 176 177 174 168 176 166 138 148 168 178 184 178 159 143 143 152 157 161 165 171 179 184 173 170 171 167 167 169 172 169 162
170 173 174 177 182 183 183 183 182 187 192 199 189 163 162 182 198 200 200 211 213 215 225 224 223 216 202 202 207 210 212 210 207 217 221 199 204 210 202 206 204 201 201 191 193 197 191 180 170 170 174 177 178 192 216 199 181 175 201 189 159 170 179 174 179 178 162 146 141 148 154 156 167 179 185 182 174 177 182 176 174 178 180 175 170
168 171 173 175 178 178 176 178 184 190 192 192 181 171 175 183 191 198 201 209 214 220 226 228 231 220 204 207 209 211 215 212 203 211 223 212 205 210 207 206 202 198 197 193 198 200 191 179 174 174 173 178 182 186 182 165 157 149 151 159 158 169 176 174 177 182 171 154 144 145 148 147 155 168 165 165 175 186 190 182 181 188 191 186 180
164 165 168 167 169 173 173 172 180 190 189 180 175 177 181 180 186 191 199 209 219 228 232 233 238 223 207 213 215 215 219 215 206 208 218 210 202 206 209 207 204 202 204 205 204 205 197 184 182 182 179 182 180 172 166 158 158 159 150 143 144 156 171 177 178 182 180 167 154 150 149 147 144 147 147 149 165 178 185 192 194 191 191 194 190
160 161 164 165 168 173 171 165 170 181 181 176 173 172 170 176 184 185 191 206 221 234 234 232 238 227 214 219 221 219 221 217 210 208 216 214 200 198 204 207 207 204 209 217 216 212 209 204 200 192 191 194 185 179 175 172 171 171 168 157 141 141 154 169 176 182 186 180 169 160 156 157 154 148 151 154 163 168 176 195 203 196 186 192 194
158 161 162 166 173 174 165 158 163 172 176 176 174 170 159 161 168 168 170 183 201 220 229 230 231 227 220 221 221 220 221 215 207 207 217 221 202 192 198 203 206 204 208 220 220 210 211 215 211 202 206 206 194 188 185 180 174 172 173 166 145 131 137 152 170 187 193 191 182 176 168 166 166 163 168 169 172 175 183 196 195 200 195 186 191
158 160 161 165 169 170 165 165 168 170 174 169 165 171 158 152 153 151 154 161 173 198 219 224 225 220 212 213 213 214 216 212 208 210 215 213 199 192 197 198 204 206 209 214 206 200 206 209 207 206 210 207 198 192 190 184 176 176 177 174 158 133 124 133 146 178 199 201 196 192 186 181 179 174 181 183 184 184 192 202 196 201 206 189 188
163 160 158 161 163 166 165 167 167 167 168 156 150 157 156 151 149 148 152 161 170 188 208 212 216 209 201 206 206 201 202 208 212 214 215 205 192 188 188 188 195 198 201 202 194 194 200 197 194 197 198 197 196 193 194 190 182 182 180 181 176 158 142 133 125 135 186 205 210 207 200 197 197 195 196 195 197 196 197 206 207 213 212 205 206
184 169 158 158 160 159 155 155 156 158 157 149 146 149 150 148 149 150 151 167 174 183 197 203 209 200 197 206 202 193 192 198 205 211 219 209 194 185 178 181 188 186 190 197 194 193 193 187 185 185 182 182 185 186 191 194 192 191 184 181 180 171 164 149 142 134 147 182 209 219 219 216 214 214 214 210 209 206 206 210 212 222 221 215 217
179 165 155 154 154 153 150 148 149 152 151 146 143 141 139 138 148 151 151 167 172 177 182 196 209 197 190 192 188 189 190 192 195 198 209 211 199 187 180 185 190 185 187 192 192 191 190 186 183 182 180 177 181 183 187 192 194 190 179 171 169 166 160 143 142 147 148 162 181 208 224 228 230 232 229 225 223 217 215 217 218 224 225 223 222
164 155 151 152 151 155 159 157 154 156 157 154 149 143 138 135 144 144 138 145 152 161 166 179 200 194 187 180 176 186 193 194 191 188 195 209 207 194 189 193 193 192 191 190 189 189 191 191 184 185 188 184 184 187 186 186 187 183 174 164 159 157 160 157 151 137 140 156 169 188 211 222 231 239 241 239 238 234 227 223 224 226 227 228 227
157 155 155 155 154 158 163 163 160 161 160 156 149 143 140 138 140 141 130 117 121 136 144 154 173 175 176 172 167 174 184 186 184 184 193 208 212 201 198 197 195 198 198 194 190 189 193 197 192 190 196 197 196 197 195 193 194 196 199 201 203 201 195 227 264 268 245 163 160 182 193 205 217 228 240 244 244 244 239 233 228 227 230 232 232
158 160 160 159 158 159 162 161 162 161 155 148 142 138 139 141 143 145 136 119 118 125 123 131 142 146 154 156 157 163 167 165 168 179 192 202 205 200 200 197 196 200 202 200 194 191 193 199 202 200 198 201 204 204 199 197 196 204 216 220 219 222 231 260 285 286 271 252 225 198 184 190 202 215 239 249 245 241 240 238 232 228 230 232 235
162 164 164 165 164 163 164 164 163 160 153 148 146 146 145 140 138 139 136 127 120 117 114 120 128 134 139 140 147 160 169 166 164 175 188 196 198 197 195 190 194 203 208 208 200 196 198 196 202 204 196 189 189 194 197 193 180 175 192 201 204 220 243 262 276 280 269 256 246 237 213 179 180 205 232 251 249 239 236 238 236 233 233 233 235
164 168 168 169 171 171 170 169 166 163 161 159 156 156 152 141 138 139 137 133 125 117 113 115 123 129 133 138 141 149 166 169 167 174 182 188 190 189 188 185 195 206 213 219 213 208 211 205 202 200 191 185 183 189 201 201 188 169 160 170 189 214 237 259 270 266 263 257 250 244 236 210 171 161 184 223 241 238 240 243 240 238 236 235 236
166 170 171 171 175 177 177 174 170 169 170 169 165 160 153 147 145 143 140 134 127 120 115 114 118 121 124 130 131 132 146 156 157 164 173 179 179 178 185 194 200 205 211 219 221 218 215 206 200 195 188 191 195 193 195 194 198 192 151 146 181 213 235 243 250 274 277 264 256 254 247 229 209 171 133 179 220 218 231 252 251 247 243 239 240
173 174 174 174 176 179 180 179 175 174 176 175 171 163 157 156 150 144 142 136 130 128 124 121 123 121 122 126 126 129 137 147 152 156 163 171 173 170 178 191 199 206 212 218 221 220 215 203 197 195 193 200 204 203 204 199 195 183 136 96 213 221 262 244 229 280 311 292 262 256 252 238 230 231 203 66 217 221 223 247 257 259 256 252 249
175 174 174 174 177 179 181 181 178 177 177 176 173 167 163 159 148 142 140 135 132 135 132 129 130 126 126 130 134 134 132 137 146 152 158 166 168 163 166 177 190 203 213 220 221 220 218 212 205 201 201 206 209 208 216 217 206 187 179 320 39 60 338 305 329 333 344 331 288 271 266 252 244 252 263 292 351 257 257 296 278 265 260 262 260
177 175 174 175 177 180 182 182 180 179 181 181 178 174 165 153 143 138 134 130 130 136 135 131 132 129 124 123 128 132 128 124 122 126 141 156 164 164 163 170 180 192 205 217 221 222 220 214 210 207 208 212 211 202 207 216 209 199 199 110 62 25 241 324 359 349 352 345 313 302 299 286 273 277 281 280 288 280 267 277 287 285 269 258 256
180 176 175 177 178 180 181 181 180 181 183 186 185 176 164 156 150 143 138 135 135 138 138 134 133 131 125 121 121 128 134 127 114 110 117 130 144 157 163 171 179 181 185 188 190 196 198 200 204 207 213 215 207 198 194 199 203 207 196 124 87 61 156 61 50 328 339 355 357 342 336 333 317 313 314 304 302 296 281 267 269 280 276 259 252
181 175 175 177 178 179 180 178 179 182 186 189 185 174 165 163 161 155 150 147 144 141 138 134 131 129 125 122 119 119 124 121 112 109 112 118 124 130 133 145 162 164 154 146 148 156 163 170 173 184 203 210 205 197 187 181 186 199 202 153 79 67 70 67 96 93 337 343 348 355 358 351 339 340 344 336 324 310 300 284 264 265 268 265 257
179 174 175 176 177 178 178 175 176 183 187 184 179 174 169 166 164 162 159 155 148 143 141 137 133 131 125 123 122 119 115 108 104 105 111 115 113 113 112 115 124 130 128 123 126 140 147 146 141 146 166 183 194 191 182 180 176 176 172 121 72 63 53 53 48 47 98 323 326 347 3 0 1 8 4 355 345 332 321 304 278 268 268 277 272
181 179 177 177 178 178 177 175 177 183 184 177 175 174 170 167 166 165 160 154 148 145 144 140 137 134 129 127 127 126 121 110 105 104 107 111 109 108 107 109 113 118 118 114 114 118 119 123 124 123 125 124 127 139 152 162 161 148 138 118 102 91 80 71 55 53 101 79 316 321 349 355 358 4 4 354 345 341 333 319 300 287 278 289 293
184 182 179 178 179 179 177 176 179 184 181 175 174 171 169 167 166 163 157 153 151 149 147 143 142 139 135 134 132 131 131 124 115 110 109 111 112 111 108 108 112 116 115 112 112 111 107 108 108 111 114 110 110 112 115 123 126 125 127 121 107 96 87 72 58 58 71 64 331 304 338 353 344 345 359 359 348 339 335 331 322 309 297 296 300
185 184 183 182 181 181 180 180 182 185 181 177 174 170 169 170 167 164 161 159 157 154 152 149 150 148 144 143 139 136 136 134 129 123 118 117 117 114 109 108 112 115 116 113 115 117 112 108 107 110 113 112 111 108 105 110 114 116 117 114 107 99 90 76 61 58 63 57 19 308 332 349 334 335 359 19 37 43 41 38 28 9 353 336 311